C2015 KOPF-KOPF

Flight info

Callsign C2015
Flight time N/A
Altitude 6500
Route VFR
Aircraft C30J/M-SDGRY/LB1

Departure

Time 2026-04-23 00:24
Airport Miami-Opa Locka Executive Airport (KOPF)

Arrival

Time N/A
Airport Miami-Opa Locka Executive Airport (KOPF)
Time Latitude Longitude Altitude Speed Heading
2026-04-23 00:14 25.90669 -80.27520 14 ft 0 kts 121°
2026-04-23 00:17 25.90669 -80.27518 14 ft 4 kts 118°
2026-04-23 00:18 25.90673 -80.27516 14 ft 1 kts 319°
2026-04-23 00:18 25.90686 -80.27538 16 ft 0 kts 301°
2026-04-23 00:18 25.90689 -80.27543 15 ft 3 kts 302°
2026-04-23 00:18 25.90706 -80.27576 14 ft 8 kts 300°
2026-04-23 00:19 25.90751 -80.27630 14 ft 13 kts 332°
2026-04-23 00:19 25.90802 -80.27687 14 ft 11 kts 281°
2026-04-23 00:19 25.90806 -80.27788 14 ft 15 kts 271°
2026-04-23 00:19 25.90808 -80.27876 14 ft 8 kts 287°
2026-04-23 00:20 25.90896 -80.27903 14 ft 19 kts 360°
2026-04-23 00:20 25.91034 -80.27900 14 ft 19 kts
2026-04-23 00:20 25.91119 -80.27903 13 ft 13 kts 358°
2026-04-23 00:20 25.91175 -80.27938 14 ft 11 kts 264°
2026-04-23 00:21 25.91164 -80.28108 13 ft 31 kts 269°
2026-04-23 00:21 25.91155 -80.28312 13 ft 19 kts 265°
2026-04-23 00:21 25.91147 -80.28481 13 ft 22 kts 268°
2026-04-23 00:21 25.91136 -80.28687 15 ft 27 kts 266°
2026-04-23 00:22 25.91149 -80.28827 16 ft 12 kts 319°
2026-04-23 00:22 25.91218 -80.28843 16 ft 13 kts
2026-04-23 00:22 25.91266 -80.28802 16 ft 8 kts 75°
2026-04-23 00:22 25.91269 -80.28769 16 ft 6 kts 87°
2026-04-23 00:23 25.91279 -80.28559 14 ft 63 kts 88°
2026-04-23 00:23 25.91315 -80.27936 12 ft 103 kts 89°
2026-04-23 00:23 25.91353 -80.26904 108 ft 163 kts 88°
2026-04-23 00:23 25.91380 -80.25481 480 ft 204 kts 89°
2026-04-23 00:24 25.91461 -80.23876 1250 ft 205 kts 84°
2026-04-23 00:24 25.91597 -80.22230 1890 ft 219 kts 84°
2026-04-23 00:24 25.91749 -80.20537 2865 ft 220 kts 84°
2026-04-23 00:24 25.91901 -80.18840 3843 ft 222 kts 84°
2026-04-23 00:25 25.92056 -80.17123 4801 ft 225 kts 83°
2026-04-23 00:25 25.92214 -80.15385 5746 ft 228 kts 84°
2026-04-23 00:25 25.92375 -80.13611 6399 ft 247 kts 83°
2026-04-23 00:25 25.92557 -80.11614 6523 ft 260 kts 84°
2026-04-23 00:26 25.92738 -80.09612 6518 ft 263 kts 83°
2026-04-23 00:26 25.92907 -80.07708 6489 ft 236 kts 84°
2026-04-23 00:26 25.93065 -80.05908 6498 ft 233 kts 84°
2026-04-23 00:26 25.93225 -80.04118 6503 ft 233 kts 84°
2026-04-23 00:27 25.93697 -80.02419 6502 ft 231 kts 58°
2026-04-23 00:27 25.94841 -80.01221 6501 ft 227 kts 21°
2026-04-23 00:27 25.96364 -80.01057 6501 ft 220 kts 342°
2026-04-23 00:27 25.97658 -80.01899 6508 ft 216 kts 317°
2026-04-23 00:28 25.98762 -80.03036 6505 ft 216 kts 314°
2026-04-23 00:28 25.99841 -80.04194 6503 ft 216 kts 314°
2026-04-23 00:28 26.00909 -80.05341 6503 ft 216 kts 314°
2026-04-23 00:28 26.01989 -80.06502 6504 ft 215 kts 314°
2026-04-23 00:29 26.03054 -80.07646 6499 ft 213 kts 315°
2026-04-23 00:29 26.04229 -80.08694 6511 ft 225 kts 322°
2026-04-23 00:29 26.05616 -80.09798 6518 ft 260 kts 322°
2026-04-23 00:29 26.07083 -80.10966 6508 ft 263 kts 322°
2026-04-23 00:30 26.08568 -80.12153 6502 ft 263 kts 322°
2026-04-23 00:30 26.10053 -80.13342 6502 ft 263 kts 322°
2026-04-23 00:30 26.11538 -80.14535 6503 ft 263 kts 322°
2026-04-23 00:30 26.13019 -80.15728 6503 ft 263 kts 322°
2026-04-23 00:31 26.14500 -80.16923 6502 ft 263 kts 322°
2026-04-23 00:31 26.15982 -80.18119 6412 ft 263 kts 322°
2026-04-23 00:31 26.17458 -80.19309 6343 ft 262 kts 322°
2026-04-23 00:31 26.18915 -80.20486 6347 ft 262 kts 322°
2026-04-23 00:32 26.20390 -80.21679 6352 ft 262 kts 322°
2026-04-23 00:32 26.21865 -80.22871 6353 ft 262 kts 322°
2026-04-23 00:32 26.23343 -80.24066 6351 ft 262 kts 322°
2026-04-23 00:32 26.24822 -80.25261 6354 ft 262 kts 322°
2026-04-23 00:33 26.26292 -80.26459 6354 ft 262 kts 320°
2026-04-23 00:33 26.27756 -80.27672 6351 ft 262 kts 320°
2026-04-23 00:33 26.29208 -80.28868 6351 ft 262 kts 321°
2026-04-23 00:33 26.30682 -80.30064 6352 ft 262 kts 321°
2026-04-23 00:34 26.32156 -80.31255 6354 ft 262 kts 321°
2026-04-23 00:34 26.33637 -80.32452 6352 ft 262 kts 321°
2026-04-23 00:34 26.35121 -80.33653 6354 ft 262 kts 321°
2026-04-23 00:34 26.36580 -80.34834 6352 ft 262 kts 321°
2026-04-23 00:35 26.38058 -80.36032 6354 ft 262 kts 321°
2026-04-23 00:35 26.39532 -80.37226 6354 ft 262 kts 321°
2026-04-23 00:35 26.40998 -80.38418 6349 ft 262 kts 321°
2026-04-23 00:35 26.42470 -80.39618 6354 ft 262 kts 322°
2026-04-23 00:36 26.43959 -80.40796 6355 ft 262 kts 323°
2026-04-23 00:36 26.45449 -80.41970 6353 ft 262 kts 323°
2026-04-23 00:36 26.46935 -80.43157 6351 ft 262 kts 322°
2026-04-23 00:36 26.48414 -80.44349 6353 ft 262 kts 322°
2026-04-23 00:37 26.49889 -80.45544 6352 ft 262 kts 322°
2026-04-23 00:37 26.51363 -80.46741 6354 ft 262 kts 322°
2026-04-23 00:37 26.52819 -80.47926 6354 ft 262 kts 322°
2026-04-23 00:37 26.54292 -80.49127 6348 ft 262 kts 322°
2026-04-23 00:38 26.55765 -80.50328 6353 ft 262 kts 322°
2026-04-23 00:38 26.57233 -80.51526 6354 ft 262 kts 322°
2026-04-23 00:38 26.58551 -80.52603 6350 ft 262 kts 322°
2026-04-23 00:38 26.60022 -80.53805 6354 ft 262 kts 322°
2026-04-23 00:39 26.61491 -80.55006 6353 ft 262 kts 322°
2026-04-23 00:39 26.62964 -80.56209 6352 ft 262 kts 322°
2026-04-23 00:39 26.64439 -80.57415 6354 ft 261 kts 322°
2026-04-23 00:39 26.65891 -80.58602 6354 ft 262 kts 322°
2026-04-23 00:40 26.67383 -80.59823 6354 ft 262 kts 322°
2026-04-23 00:40 26.68833 -80.61009 6352 ft 262 kts 322°
2026-04-23 00:40 26.70307 -80.62215 6353 ft 262 kts 322°
2026-04-23 00:40 26.71782 -80.63423 6352 ft 262 kts 322°
2026-04-23 00:41 26.73236 -80.64614 6353 ft 262 kts 322°
2026-04-23 00:41 26.74700 -80.65814 6355 ft 262 kts 322°
2026-04-23 00:41 26.76174 -80.67021 6353 ft 262 kts 322°
2026-04-23 00:41 26.77648 -80.68232 6351 ft 262 kts 322°
2026-04-23 00:42 26.79106 -80.69428 6355 ft 262 kts 322°
2026-04-23 00:42 26.80582 -80.70638 6355 ft 262 kts 322°
2026-04-23 00:42 26.82040 -80.71834 6352 ft 262 kts 322°
2026-04-23 00:42 26.83519 -80.73048 6349 ft 262 kts 322°
2026-04-23 00:43 26.84988 -80.74256 6354 ft 262 kts 322°
2026-04-23 00:43 26.86445 -80.75453 6355 ft 262 kts 322°
2026-04-23 00:43 26.87933 -80.76651 6354 ft 262 kts 325°
2026-04-23 00:43 26.89559 -80.77598 6350 ft 264 kts 337°
2026-04-23 00:44 26.91331 -80.78105 6351 ft 267 kts 350°
2026-04-23 00:44 26.93196 -80.78245 6355 ft 268 kts 356°
2026-04-23 00:44 26.94439 -80.78279 6354 ft 268 kts 356°
2026-04-23 00:44 26.96916 -80.78317 6352 ft 268 kts 357°
2026-04-23 00:45 26.98785 -80.78331 6353 ft 268 kts 358°
2026-04-23 00:45 27.00023 -80.78337 6355 ft 268 kts 358°
2026-04-23 00:45 27.02501 -80.78343 6355 ft 268 kts 358°
2026-04-23 00:45 27.03765 -80.78344 6353 ft 268 kts 358°
2026-04-23 00:46 27.05607 -80.78346 6353 ft 268 kts 358°
2026-04-23 00:46 27.07477 -80.78346 6355 ft 268 kts 358°
2026-04-23 00:46 27.09340 -80.78346 6350 ft 268 kts 358°
2026-04-23 00:46 27.11215 -80.78346 6353 ft 268 kts 358°
2026-04-23 00:47 27.13054 -80.78466 6346 ft 266 kts 345°
2026-04-23 00:47 27.14696 -80.79364 6353 ft 261 kts 317°
2026-04-23 00:47 27.15689 -80.81036 6354 ft 258 kts 287°
2026-04-23 00:47 27.15813 -80.83015 6356 ft 258 kts 265°
2026-04-23 00:48 27.15318 -80.84947 6350 ft 259 kts 240°
2026-04-23 00:48 27.14034 -80.86321 6353 ft 263 kts 208°
2026-04-23 00:48 27.12244 -80.86704 6350 ft 269 kts 176°
2026-04-23 00:48 27.10420 -80.86188 6357 ft 271 kts 163°
2026-04-23 00:49 27.08623 -80.85473 6357 ft 280 kts 162°
2026-04-23 00:49 27.06771 -80.84722 6354 ft 284 kts 162°
2026-04-23 00:49 27.04915 -80.83964 6350 ft 283 kts 161°
2026-04-23 00:49 27.03090 -80.83207 6355 ft 283 kts 161°
2026-04-23 00:50 27.01232 -80.82439 6355 ft 283 kts 161°
2026-04-23 00:50 26.99386 -80.81680 6351 ft 283 kts 161°
2026-04-23 00:50 26.97533 -80.80923 6356 ft 283 kts 161°
2026-04-23 00:50 26.95705 -80.80176 6353 ft 283 kts 161°
2026-04-23 00:51 26.93849 -80.79417 6353 ft 283 kts 161°
2026-04-23 00:51 26.91995 -80.78662 6353 ft 283 kts 161°
2026-04-23 00:51 26.90161 -80.77915 6355 ft 283 kts 161°
2026-04-23 00:51 26.88301 -80.77157 6351 ft 283 kts 161°
2026-04-23 00:52 26.86444 -80.76401 6355 ft 283 kts 161°
2026-04-23 00:52 26.84611 -80.75654 6353 ft 283 kts 161°
2026-04-23 00:52 26.82756 -80.74898 6352 ft 283 kts 161°
2026-04-23 00:52 26.80898 -80.74142 6356 ft 283 kts 161°
2026-04-23 00:53 26.79064 -80.73397 6355 ft 283 kts 161°
2026-04-23 00:53 26.77205 -80.72641 6355 ft 283 kts 161°
2026-04-23 00:53 26.75375 -80.71899 6353 ft 283 kts 161°
2026-04-23 00:53 26.73524 -80.71146 6353 ft 283 kts 161°
2026-04-23 00:54 26.71726 -80.70229 6353 ft 285 kts 147°
2026-04-23 00:54 26.70409 -80.68580 6352 ft 288 kts 117°
2026-04-23 00:54 26.69983 -80.66430 6354 ft 289 kts 86°
2026-04-23 00:54 26.70539 -80.64279 6354 ft 289 kts 63°
2026-04-23 00:55 26.71707 -80.62466 6355 ft 286 kts 39°
2026-04-23 00:55 26.73433 -80.61487 6349 ft 281 kts
2026-04-23 00:55 26.75352 -80.61574 6355 ft 276 kts 340°
2026-04-23 00:55 26.77016 -80.62615 6356 ft 273 kts 321°
2026-04-23 00:56 26.78509 -80.63932 6353 ft 273 kts 319°
2026-04-23 00:56 26.79951 -80.65274 6350 ft 273 kts 318°
2026-04-23 00:56 26.81396 -80.66652 6352 ft 273 kts 317°
2026-04-23 00:56 26.82828 -80.68040 6353 ft 272 kts 317°
2026-04-23 00:57 26.84265 -80.69444 6350 ft 272 kts 317°
2026-04-23 00:57 26.85678 -80.70832 6352 ft 272 kts 316°
2026-04-23 00:57 26.87109 -80.72241 6356 ft 272 kts 316°
2026-04-23 00:57 26.88534 -80.73647 6350 ft 272 kts 316°
2026-04-23 00:58 26.89954 -80.75049 6351 ft 270 kts 316°
2026-04-23 00:58 26.91356 -80.76435 6355 ft 272 kts 316°
2026-04-23 00:58 26.92786 -80.77849 6349 ft 272 kts 316°
2026-04-23 00:58 26.94193 -80.79243 6355 ft 272 kts 316°
2026-04-23 00:59 26.95621 -80.80658 6351 ft 272 kts 316°
2026-04-23 00:59 26.97031 -80.82055 6351 ft 272 kts 316°
2026-04-23 00:59 26.98451 -80.83462 6354 ft 272 kts 316°
2026-04-23 00:59 26.99881 -80.84881 6353 ft 273 kts 316°
2026-04-23 01:00 27.01289 -80.86277 6350 ft 272 kts 316°
2026-04-23 01:00 27.02713 -80.87689 6350 ft 273 kts 316°
2026-04-23 01:00 27.04141 -80.89104 6350 ft 272 kts 316°
2026-04-23 01:00 27.05552 -80.90504 6354 ft 272 kts 316°
2026-04-23 01:01 27.06965 -80.91906 6354 ft 272 kts 316°
2026-04-23 01:01 27.08307 -80.93410 6352 ft 271 kts 304°
2026-04-23 01:01 27.08998 -80.95347 6354 ft 269 kts 276°
2026-04-23 01:01 27.08758 -80.97393 6351 ft 270 kts 247°
2026-04-23 01:02 27.07639 -80.99099 6356 ft 272 kts 226°
2026-04-23 01:02 27.06077 -81.00258 6353 ft 276 kts 201°
2026-04-23 01:02 27.04165 -81.00421 6350 ft 281 kts 170°
2026-04-23 01:02 27.02426 -80.99409 6351 ft 286 kts 137°
2026-04-23 01:03 27.01216 -80.97637 6354 ft 288 kts 123°
2026-04-23 01:03 27.00169 -80.95710 6352 ft 288 kts 121°
2026-04-23 01:03 26.99155 -80.93802 6353 ft 288 kts 121°
2026-04-23 01:03 26.98129 -80.91860 6356 ft 289 kts 121°
2026-04-23 01:04 26.97108 -80.89924 6353 ft 288 kts 121°
2026-04-23 01:04 26.96100 -80.88009 6352 ft 288 kts 121°
2026-04-23 01:04 26.94065 -80.84142 6352 ft 288 kts 121°
2026-04-23 01:05 26.93047 -80.82208 6352 ft 288 kts 121°
2026-04-23 01:05 26.92025 -80.80269 6352 ft 288 kts 121°
2026-04-23 01:05 26.91002 -80.78327 6356 ft 288 kts 121°
2026-04-23 01:05 26.89982 -80.76391 6352 ft 288 kts 121°
2026-04-23 01:06 26.88975 -80.74479 6352 ft 288 kts 121°
2026-04-23 01:06 26.87953 -80.72539 6353 ft 288 kts 121°
2026-04-23 01:06 26.86927 -80.70595 6352 ft 288 kts 121°
2026-04-23 01:06 26.85919 -80.68687 6356 ft 288 kts 121°
2026-04-23 01:07 26.84889 -80.66739 6353 ft 288 kts 121°
2026-04-23 01:07 26.83877 -80.64825 6353 ft 288 kts 121°
2026-04-23 01:07 26.82852 -80.62888 6353 ft 288 kts 121°
2026-04-23 01:07 26.81838 -80.60971 6352 ft 288 kts 121°
2026-04-23 01:08 26.80844 -80.59007 6354 ft 289 kts 115°
2026-04-23 01:08 26.80429 -80.56816 6355 ft 290 kts 88°
2026-04-23 01:08 26.80968 -80.54696 6351 ft 288 kts 58°
2026-04-23 01:08 26.82381 -80.53138 6354 ft 284 kts 28°
2026-04-23 01:09 26.84188 -80.52253 6354 ft 281 kts 11°
2026-04-23 01:09 26.86085 -80.52263 6352 ft 276 kts 342°
2026-04-23 01:09 26.87730 -80.53314 6353 ft 272 kts 313°
2026-04-23 01:09 26.88681 -80.55108 6352 ft 269 kts 287°
2026-04-23 01:10 26.89151 -80.57143 6355 ft 269 kts 282°
2026-04-23 01:10 26.89538 -80.59199 6355 ft 269 kts 281°
2026-04-23 01:10 26.89895 -80.61257 6354 ft 269 kts 280°
2026-04-23 01:10 26.90234 -80.63320 6355 ft 269 kts 279°
2026-04-23 01:11 26.90562 -80.65385 6354 ft 269 kts 279°
2026-04-23 01:11 26.90884 -80.67456 6351 ft 269 kts 279°
2026-04-23 01:11 26.91209 -80.69523 6355 ft 269 kts 279°
2026-04-23 01:11 26.91532 -80.71592 6351 ft 269 kts 279°
2026-04-23 01:12 26.91848 -80.73637 6350 ft 269 kts 279°
2026-04-23 01:12 26.92163 -80.75705 6349 ft 269 kts 279°
2026-04-23 01:12 26.92477 -80.77778 6354 ft 269 kts 279°
2026-04-23 01:12 26.92790 -80.79850 6354 ft 269 kts 279°
2026-04-23 01:13 26.93101 -80.81917 6350 ft 269 kts 279°
2026-04-23 01:13 26.93411 -80.83985 6354 ft 269 kts 279°
2026-04-23 01:13 26.93722 -80.86053 6350 ft 269 kts 279°
2026-04-23 01:13 26.94032 -80.88122 6354 ft 269 kts 279°
2026-04-23 01:14 26.94342 -80.90192 6351 ft 269 kts 279°
2026-04-23 01:14 26.94651 -80.92261 6354 ft 269 kts 279°
2026-04-23 01:14 26.94961 -80.94332 6351 ft 269 kts 279°
2026-04-23 01:14 26.95270 -80.96404 6354 ft 269 kts 279°
2026-04-23 01:15 26.95575 -80.98447 6354 ft 269 kts 279°
2026-04-23 01:15 26.95884 -81.00522 6354 ft 269 kts 279°
2026-04-23 01:15 26.95907 -81.02605 6350 ft 269 kts 258°
2026-04-23 01:15 26.95081 -81.04478 6348 ft 272 kts 230°
2026-04-23 01:16 26.93512 -81.05626 6354 ft 276 kts 199°
2026-04-23 01:16 26.91602 -81.05914 6354 ft 279 kts 180°
2026-04-23 01:16 26.89741 -81.05370 6355 ft 284 kts 153°
2026-04-23 01:16 26.88314 -81.03826 6354 ft 288 kts 121°
2026-04-23 01:17 26.87778 -81.01686 6353 ft 289 kts 91°
2026-04-23 01:17 26.87948 -80.99439 6354 ft 289 kts 82°
2026-04-23 01:17 26.88248 -80.97188 6353 ft 289 kts 81°
2026-04-23 01:17 26.88548 -80.94997 6355 ft 289 kts 81°
2026-04-23 01:18 26.88858 -80.92746 6355 ft 289 kts 81°
2026-04-23 01:18 26.89165 -80.90514 6354 ft 289 kts 81°
2026-04-23 01:18 26.89469 -80.88307 6353 ft 289 kts 81°
2026-04-23 01:18 26.89776 -80.86079 6351 ft 289 kts 81°
2026-04-23 01:19 26.90086 -80.83819 6354 ft 289 kts 81°
2026-04-23 01:19 26.90388 -80.81617 6354 ft 289 kts 81°
2026-04-23 01:19 26.90693 -80.79390 6353 ft 289 kts 81°
2026-04-23 01:19 26.90999 -80.77157 6350 ft 289 kts 81°
2026-04-23 01:20 26.91304 -80.74920 6354 ft 289 kts 81°
2026-04-23 01:20 26.91608 -80.72693 6354 ft 289 kts 81°
2026-04-23 01:20 26.91912 -80.70464 6354 ft 289 kts 81°
2026-04-23 01:20 26.92216 -80.68236 6354 ft 289 kts 81°
2026-04-23 01:21 26.92519 -80.66006 6354 ft 289 kts 81°
2026-04-23 01:21 26.92822 -80.63775 6354 ft 289 kts 81°
2026-04-23 01:21 26.93124 -80.61546 6354 ft 289 kts 81°
2026-04-23 01:21 26.93427 -80.59315 6354 ft 289 kts 81°
2026-04-23 01:22 26.93725 -80.57113 6354 ft 289 kts 81°
2026-04-23 01:22 26.94228 -80.54942 6348 ft 288 kts 64°
2026-04-23 01:22 26.95463 -80.53204 6353 ft 285 kts 36°
2026-04-23 01:22 26.97254 -80.52352 6354 ft 281 kts
2026-04-23 01:23 26.99178 -80.52519 6355 ft 277 kts 345°
2026-04-23 01:23 27.00934 -80.53342 6351 ft 273 kts 322°
2026-04-23 01:23 27.02116 -80.54967 6353 ft 270 kts 292°
2026-04-23 01:23 27.02376 -80.57000 6354 ft 269 kts 262°
2026-04-23 01:24 27.01777 -80.58988 6353 ft 270 kts 246°
2026-04-23 01:24 27.00947 -80.60881 6358 ft 270 kts 244°
2026-04-23 01:24 27.00080 -80.62750 6350 ft 270 kts 243°
2026-04-23 01:24 26.99193 -80.64609 6354 ft 270 kts 243°
2026-04-23 01:25 26.98293 -80.66461 6349 ft 270 kts 242°
2026-04-23 01:25 26.97384 -80.68313 6350 ft 270 kts 242°
2026-04-23 01:25 26.96473 -80.70157 6354 ft 270 kts 242°
2026-04-23 01:25 26.95572 -80.71975 6354 ft 270 kts 242°
2026-04-23 01:26 26.94645 -80.73840 6353 ft 270 kts 242°
2026-04-23 01:26 26.93739 -80.75659 6354 ft 270 kts 242°
2026-04-23 01:26 26.92821 -80.77500 6353 ft 270 kts 242°
2026-04-23 01:26 26.91902 -80.79343 6352 ft 270 kts 242°
2026-04-23 01:27 26.90986 -80.81179 6352 ft 270 kts 242°
2026-04-23 01:27 26.90069 -80.83018 6352 ft 270 kts 242°
2026-04-23 01:27 26.89148 -80.84862 6353 ft 270 kts 242°
2026-04-23 01:27 26.88230 -80.86701 6353 ft 270 kts 242°
2026-04-23 01:28 26.87313 -80.88538 6356 ft 270 kts 242°
2026-04-23 01:28 26.86394 -80.90377 6354 ft 270 kts 242°
2026-04-23 01:28 26.85477 -80.92212 6354 ft 270 kts 242°
2026-04-23 01:28 26.84556 -80.94052 6351 ft 270 kts 242°
2026-04-23 01:29 26.83637 -80.95890 6350 ft 270 kts 242°
2026-04-23 01:29 26.83027 -80.97109 6352 ft 270 kts 242°
2026-04-23 01:29 26.81763 -80.99514 6348 ft 271 kts 234°
2026-04-23 01:29 26.80305 -81.00844 6352 ft 275 kts 206°
2026-04-23 01:30 26.78425 -81.01204 6352 ft 280 kts 176°
2026-04-23 01:30 26.77181 -81.00807 6355 ft 284 kts 156°
2026-04-23 01:30 26.75548 -80.99569 6350 ft 286 kts 137°
2026-04-23 01:30 26.74489 -80.97687 6353 ft 288 kts 108°
2026-04-23 01:31 26.74389 -80.95466 6353 ft 289 kts 77°
2026-04-23 01:31 26.75292 -80.93481 6354 ft 287 kts 49°
2026-04-23 01:31 26.76688 -80.91885 6356 ft 286 kts 41°
2026-04-23 01:31 26.78151 -80.90372 6354 ft 286 kts 41°
2026-04-23 01:32 26.79607 -80.88893 6352 ft 286 kts 40°
2026-04-23 01:32 26.81084 -80.87403 6352 ft 286 kts 40°
2026-04-23 01:32 26.82566 -80.85916 6353 ft 286 kts 40°
2026-04-23 01:32 26.84048 -80.84432 6356 ft 286 kts 40°
2026-04-23 01:33 26.85540 -80.82940 6352 ft 286 kts 40°
2026-04-23 01:33 26.87026 -80.81452 6356 ft 286 kts 40°
2026-04-23 01:33 26.88491 -80.79987 6349 ft 286 kts 40°
2026-04-23 01:33 26.89975 -80.78501 6352 ft 286 kts 40°
2026-04-23 01:34 26.91463 -80.77012 6350 ft 286 kts 40°
2026-04-23 01:34 26.92946 -80.75527 6355 ft 286 kts 40°
2026-04-23 01:34 26.94430 -80.74040 6349 ft 286 kts 40°
2026-04-23 01:34 26.95912 -80.72554 6352 ft 286 kts 40°
2026-04-23 01:35 26.97397 -80.71065 6354 ft 286 kts 40°
2026-04-23 01:35 26.98881 -80.69576 6354 ft 286 kts 40°
2026-04-23 01:35 27.00363 -80.68090 6355 ft 286 kts 40°
2026-04-23 01:35 27.01845 -80.66602 6350 ft 286 kts 40°
2026-04-23 01:36 27.03310 -80.65130 6354 ft 286 kts 40°
2026-04-23 01:36 27.04793 -80.63640 6355 ft 286 kts 40°
2026-04-23 01:36 27.06335 -80.62238 6349 ft 284 kts 29°
2026-04-23 01:36 27.08185 -80.61552 6351 ft 280 kts
2026-04-23 01:37 27.10066 -80.61909 6350 ft 275 kts 334°
2026-04-23 01:37 27.11545 -80.63216 6357 ft 271 kts 309°
2026-04-23 01:37 27.12567 -80.64980 6353 ft 270 kts 290°
2026-04-23 01:37 27.12773 -80.67041 6350 ft 269 kts 261°
2026-04-23 01:38 27.11974 -80.68922 6352 ft 272 kts 229°
2026-04-23 01:38 27.10422 -80.70142 6353 ft 275 kts 208°
2026-04-23 01:38 27.08701 -80.71026 6356 ft 275 kts 206°
2026-04-23 01:38 27.06947 -80.71878 6353 ft 275 kts 205°
2026-04-23 01:39 27.05181 -80.72718 6352 ft 275 kts 205°
2026-04-23 01:39 27.03415 -80.73548 6355 ft 275 kts 205°
2026-04-23 01:39 27.01644 -80.74375 6352 ft 275 kts 204°
2026-04-23 01:39 26.99874 -80.75197 6355 ft 275 kts 204°
2026-04-23 01:40 26.98101 -80.76019 6354 ft 275 kts 204°
2026-04-23 01:40 26.96327 -80.76840 6351 ft 275 kts 204°
2026-04-23 01:40 26.94558 -80.77657 6353 ft 275 kts 204°
2026-04-23 01:40 26.92809 -80.78465 6353 ft 275 kts 204°
2026-04-23 01:41 26.91038 -80.79283 6352 ft 275 kts 204°
2026-04-23 01:41 26.89267 -80.80100 6351 ft 275 kts 204°
2026-04-23 01:41 26.87496 -80.80917 6351 ft 275 kts 204°
2026-04-23 01:41 26.85726 -80.81732 6352 ft 275 kts 204°
2026-04-23 01:42 26.83952 -80.82540 6355 ft 275 kts 204°
2026-04-23 01:42 26.82173 -80.83351 6353 ft 275 kts 204°
2026-04-23 01:42 26.80399 -80.84163 6353 ft 275 kts 204°
2026-04-23 01:42 26.78627 -80.84977 6353 ft 275 kts 204°
2026-04-23 01:43 26.76848 -80.85797 6353 ft 275 kts 204°
2026-04-23 01:43 26.75094 -80.86605 6353 ft 275 kts 204°
2026-04-23 01:43 26.73322 -80.87422 6355 ft 275 kts 204°
2026-04-23 01:43 26.71496 -80.88069 6351 ft 278 kts 189°
2026-04-23 01:44 26.69579 -80.87811 6351 ft 283 kts 160°
2026-04-23 01:44 26.68011 -80.86498 6354 ft 287 kts 128°
2026-04-23 01:44 26.67164 -80.84480 6352 ft 289 kts 106°
2026-04-23 01:44 26.67011 -80.82254 6354 ft 289 kts 80°
2026-04-23 01:45 26.67795 -80.80215 6351 ft 287 kts 50°
2026-04-23 01:45 26.69368 -80.78897 6355 ft 283 kts 19°
2026-04-23 01:45 26.71279 -80.78460 6353 ft 280 kts
2026-04-23 01:45 26.73220 -80.78280 6351 ft 280 kts
2026-04-23 01:46 26.75164 -80.78143 6354 ft 280 kts
2026-04-23 01:46 26.77109 -80.78023 6353 ft 280 kts
2026-04-23 01:46 26.79052 -80.77914 6353 ft 280 kts
2026-04-23 01:46 26.80998 -80.77812 6351 ft 280 kts
2026-04-23 01:47 26.82943 -80.77713 6352 ft 280 kts
2026-04-23 01:47 26.84861 -80.77617 6354 ft 280 kts
2026-04-23 01:47 26.86805 -80.77521 6354 ft 280 kts
2026-04-23 01:47 26.88748 -80.77426 6352 ft 279 kts
2026-04-23 01:48 26.90696 -80.77330 6353 ft 279 kts
2026-04-23 01:48 26.92639 -80.77235 6349 ft 279 kts
2026-04-23 01:48 26.94585 -80.77139 6354 ft 279 kts
2026-04-23 01:48 26.96528 -80.77043 6353 ft 280 kts
2026-04-23 01:49 26.98473 -80.76948 6350 ft 280 kts
2026-04-23 01:49 27.00418 -80.76853 6354 ft 280 kts
2026-04-23 01:49 27.02364 -80.76757 6351 ft 280 kts
2026-04-23 01:49 27.04285 -80.76663 6355 ft 280 kts
2026-04-23 01:50 27.06226 -80.76568 6353 ft 280 kts
2026-04-23 01:50 27.08175 -80.76472 6350 ft 280 kts
2026-04-23 01:50 27.10117 -80.76376 6353 ft 279 kts
2026-04-23 01:50 27.12047 -80.76491 6347 ft 277 kts 343°
2026-04-23 01:51 27.13884 -80.77119 6353 ft 276 kts 343°
2026-04-23 01:51 27.15752 -80.77650 6352 ft 277 kts 343°
2026-04-23 01:51 27.17589 -80.78278 6355 ft 274 kts 330°
2026-04-23 01:51 27.18955 -80.79713 6352 ft 270 kts 298°
2026-04-23 01:52 27.19390 -80.81731 6355 ft 269 kts 266°
2026-04-23 01:52 27.18898 -80.83756 6350 ft 270 kts 252°
2026-04-23 01:52 27.18343 -80.85742 6355 ft 270 kts 252°
2026-04-23 01:52 27.17509 -80.87622 6357 ft 271 kts 234°
2026-04-23 01:53 27.16332 -80.89274 6349 ft 271 kts 231°
2026-04-23 01:53 27.15132 -80.90918 6351 ft 271 kts 231°
2026-04-23 01:53 27.13936 -80.92559 6354 ft 271 kts 231°
2026-04-23 01:53 27.12743 -80.94198 6353 ft 271 kts 231°
2026-04-23 01:54 27.11574 -80.95861 6347 ft 271 kts 238°
2026-04-23 01:54 27.10853 -80.97800 6358 ft 270 kts 251°
2026-04-23 01:54 27.10255 -80.99793 6356 ft 270 kts 252°
2026-04-23 01:54 27.09675 -81.01798 6355 ft 270 kts 252°
2026-04-23 01:55 27.09119 -81.03814 6352 ft 270 kts 253°
2026-04-23 01:55 27.08580 -81.05831 6355 ft 270 kts 253°
2026-04-23 01:55 27.08050 -81.07849 6355 ft 269 kts 253°
2026-04-23 01:55 27.07532 -81.09843 6355 ft 270 kts 254°
2026-04-23 01:56 27.07012 -81.11859 6354 ft 269 kts 254°
2026-04-23 01:56 27.06490 -81.13885 6355 ft 270 kts 254°
2026-04-23 01:56 27.05971 -81.15907 6355 ft 269 kts 254°
2026-04-23 01:56 27.05453 -81.17926 6354 ft 269 kts 254°
2026-04-23 01:57 27.04934 -81.19945 6356 ft 268 kts 254°
2026-04-23 01:57 27.04415 -81.21967 6350 ft 270 kts 254°
2026-04-23 01:57 27.03895 -81.23993 6350 ft 269 kts 254°
2026-04-23 01:57 27.03376 -81.26014 6352 ft 270 kts 254°
2026-04-23 01:58 27.02857 -81.28033 6349 ft 269 kts 254°
2026-04-23 01:58 27.02342 -81.30032 6349 ft 270 kts 254°
2026-04-23 01:58 27.01820 -81.32057 6355 ft 270 kts 254°
2026-04-23 01:58 27.01299 -81.34075 6352 ft 270 kts 254°
2026-04-23 01:59 27.00776 -81.36101 6355 ft 269 kts 254°
2026-04-23 01:59 27.00256 -81.38117 6355 ft 270 kts 254°
2026-04-23 01:59 26.99734 -81.40137 6351 ft 270 kts 254°
2026-04-23 01:59 26.99212 -81.42155 6352 ft 270 kts 254°
2026-04-23 02:00 26.98690 -81.44172 6355 ft 270 kts 254°
2026-04-23 02:00 26.98170 -81.46179 6355 ft 270 kts 254°
2026-04-23 02:00 26.97647 -81.48195 6352 ft 270 kts 254°
2026-04-23 02:00 26.97128 -81.50211 6348 ft 268 kts 254°
2026-04-23 02:01 26.96613 -81.52227 6355 ft 272 kts 254°
2026-04-23 02:01 26.96092 -81.54253 6350 ft 270 kts 254°
2026-04-23 02:01 26.95569 -81.56275 6355 ft 269 kts 254°
2026-04-23 02:01 26.95045 -81.58293 6355 ft 270 kts 254°
2026-04-23 02:02 26.94521 -81.60309 6350 ft 269 kts 254°
2026-04-23 02:02 26.93995 -81.62329 6355 ft 270 kts 254°
2026-04-23 02:02 26.93468 -81.64350 6355 ft 269 kts 254°
2026-04-23 02:02 26.92942 -81.66366 6355 ft 270 kts 254°
2026-04-23 02:03 26.92424 -81.68347 6354 ft 270 kts 254°
2026-04-23 02:03 26.91950 -81.70375 6351 ft 269 kts 262°
2026-04-23 02:03 26.92022 -81.72456 6348 ft 269 kts 283°
2026-04-23 02:03 26.92818 -81.74351 6350 ft 271 kts 306°
2026-04-23 02:04 26.94235 -81.75740 6354 ft 274 kts 329°
2026-04-23 02:04 26.96062 -81.76378 6356 ft 278 kts 350°
2026-04-23 02:04 26.97990 -81.76549 6355 ft 279 kts 355°
2026-04-23 02:04 26.99930 -81.76630 6354 ft 279 kts 356°
2026-04-23 02:05 27.01874 -81.76675 6351 ft 279 kts 357°
2026-04-23 02:05 27.03814 -81.76699 6350 ft 279 kts 357°
2026-04-23 02:05 27.05757 -81.76712 6355 ft 279 kts 358°
2026-04-23 02:05 27.07702 -81.76718 6353 ft 279 kts 358°
2026-04-23 02:06 27.09623 -81.76720 6354 ft 279 kts 358°
2026-04-23 02:06 27.11568 -81.76719 6351 ft 278 kts 358°
2026-04-23 02:06 27.13508 -81.76716 6354 ft 279 kts 358°
2026-04-23 02:06 27.15453 -81.76714 6356 ft 279 kts 358°
2026-04-23 02:07 27.17390 -81.76772 6348 ft 278 kts 350°
2026-04-23 02:07 27.19171 -81.77514 6353 ft 273 kts 324°
2026-04-23 02:07 27.20402 -81.79093 6352 ft 270 kts 295°
2026-04-23 02:07 27.20761 -81.81136 6358 ft 269 kts 268°
2026-04-23 02:08 27.20459 -81.83207 6353 ft 270 kts 250°
2026-04-23 02:08 27.19364 -81.84902 6353 ft 273 kts 219°
2026-04-23 02:08 27.17613 -81.85705 6354 ft 278 kts 188°
2026-04-23 02:08 27.15712 -81.85428 6355 ft 282 kts 165°
2026-04-23 02:09 27.13852 -81.84693 6354 ft 283 kts 161°
2026-04-23 02:09 27.12012 -81.83916 6352 ft 283 kts 161°
2026-04-23 02:09 27.10170 -81.83133 6352 ft 283 kts 161°
2026-04-23 02:09 27.08329 -81.82348 6351 ft 283 kts 161°
2026-04-23 02:10 27.06486 -81.81560 6355 ft 283 kts 161°
2026-04-23 02:10 27.04647 -81.80773 6355 ft 283 kts 161°
2026-04-23 02:10 27.02801 -81.79982 6349 ft 283 kts 161°
2026-04-23 02:10 27.00962 -81.79195 6353 ft 283 kts 161°
2026-04-23 02:11 26.99149 -81.78419 6347 ft 283 kts 161°
2026-04-23 02:11 26.97308 -81.77631 6351 ft 283 kts 161°
2026-04-23 02:11 26.95472 -81.76844 6351 ft 283 kts 161°
2026-04-23 02:11 26.93629 -81.76055 6350 ft 283 kts 161°
2026-04-23 02:12 26.91789 -81.75268 6354 ft 283 kts 161°
2026-04-23 02:12 26.89950 -81.74481 6355 ft 283 kts 161°
2026-04-23 02:12 26.88111 -81.73695 6351 ft 283 kts 161°
2026-04-23 02:12 26.86269 -81.72907 6351 ft 283 kts 161°
2026-04-23 02:13 26.84428 -81.72120 6355 ft 283 kts 161°
2026-04-23 02:13 26.82588 -81.71334 6355 ft 283 kts 161°
2026-04-23 02:13 26.80773 -81.70560 6355 ft 283 kts 161°
2026-04-23 02:13 26.78911 -81.69765 6355 ft 283 kts 161°
2026-04-23 02:14 26.77113 -81.68938 6351 ft 284 kts 153°
2026-04-23 02:14 26.75630 -81.67488 6352 ft 287 kts 126°
2026-04-23 02:14 26.74940 -81.65409 6353 ft 289 kts 95°
2026-04-23 02:14 26.75264 -81.63211 6355 ft 289 kts 67°
2026-04-23 02:15 26.77884 -81.60035 6354 ft 283 kts 18°
2026-04-23 02:15 26.79802 -81.59816 6354 ft 278 kts 348°
2026-04-23 02:15 26.81553 -81.60649 6359 ft 273 kts 324°
2026-04-23 02:16 26.83065 -81.61941 6352 ft 273 kts 319°
2026-04-23 02:16 26.84524 -81.63289 6352 ft 272 kts 318°
2026-04-23 02:16 26.85969 -81.64662 6355 ft 273 kts 318°
2026-04-23 02:16 26.86920 -81.65576 6350 ft 273 kts 317°
2026-04-23 02:17 26.88356 -81.66971 6352 ft 273 kts 317°
2026-04-23 02:17 26.89786 -81.68368 6355 ft 273 kts 317°
2026-04-23 02:17 26.91679 -81.70226 6351 ft 273 kts 317°
2026-04-23 02:17 26.92640 -81.71172 6356 ft 273 kts 317°
2026-04-23 02:18 26.94048 -81.72557 6354 ft 273 kts 317°
2026-04-23 02:18 26.95470 -81.73959 6350 ft 272 kts 317°
2026-04-23 02:18 26.96894 -81.75365 6352 ft 273 kts 317°
2026-04-23 02:18 26.98322 -81.76774 6350 ft 272 kts 317°
2026-04-23 02:19 26.99752 -81.78188 6352 ft 272 kts 317°
2026-04-23 02:19 27.01176 -81.79594 6352 ft 272 kts 317°
2026-04-23 02:19 27.02598 -81.80999 6352 ft 272 kts 317°
2026-04-23 02:19 27.04021 -81.82406 6352 ft 272 kts 317°
2026-04-23 02:20 27.05428 -81.83798 6351 ft 272 kts 317°
2026-04-23 02:20 27.06851 -81.85206 6356 ft 272 kts 317°
2026-04-23 02:20 27.08276 -81.86616 6353 ft 273 kts 317°
2026-04-23 02:20 27.09701 -81.88026 6355 ft 272 kts 317°
2026-04-23 02:21 27.11125 -81.89436 6356 ft 272 kts 317°
2026-04-23 02:21 27.12523 -81.90822 6351 ft 271 kts 316°
2026-04-23 02:21 27.13681 -81.92471 6351 ft 270 kts 294°
2026-04-23 02:21 27.14034 -81.94514 6353 ft 269 kts 266°
2026-04-23 02:22 27.13416 -81.96476 6352 ft 271 kts 236°
2026-04-23 02:22 27.12103 -81.97998 6352 ft 273 kts 218°
2026-04-23 02:22 27.10358 -81.98829 6353 ft 278 kts 189°
2026-04-23 02:22 27.08447 -81.98543 6354 ft 283 kts 158°
2026-04-23 02:23 27.06916 -81.97194 6355 ft 287 kts 129°
2026-04-23 02:23 27.05811 -81.95309 6357 ft 288 kts 122°
2026-04-23 02:23 27.04790 -81.93372 6355 ft 288 kts 121°
2026-04-23 02:23 27.03773 -81.91436 6354 ft 288 kts 121°
2026-04-23 02:24 27.02766 -81.89520 6353 ft 288 kts 121°
2026-04-23 02:24 27.01748 -81.87581 6352 ft 288 kts 121°
2026-04-23 02:24 27.00727 -81.85639 6353 ft 288 kts 121°
2026-04-23 02:24 26.99708 -81.83701 6353 ft 288 kts 121°
2026-04-23 02:25 26.98688 -81.81765 6352 ft 288 kts 121°
2026-04-23 02:25 26.97669 -81.79828 6355 ft 288 kts 121°
2026-04-23 02:25 26.96661 -81.77912 6352 ft 288 kts 121°
2026-04-23 02:25 26.95639 -81.75972 6354 ft 288 kts 121°
2026-04-23 02:26 26.94620 -81.74040 6354 ft 288 kts 121°
2026-04-23 02:26 26.93599 -81.72105 6353 ft 288 kts 121°
2026-04-23 02:26 26.92578 -81.70168 6351 ft 288 kts 121°
2026-04-23 02:26 26.91559 -81.68238 6354 ft 288 kts 122°
2026-04-23 02:27 26.90538 -81.66306 6352 ft 288 kts 122°
2026-04-23 02:27 26.89530 -81.64399 6350 ft 288 kts 121°
2026-04-23 02:27 26.88508 -81.62465 6352 ft 288 kts 121°
2026-04-23 02:27 26.87485 -81.60528 6353 ft 288 kts 121°
2026-04-23 02:28 26.86463 -81.58597 6354 ft 288 kts 122°
2026-04-23 02:28 26.85590 -81.56585 6348 ft 289 kts 106°
2026-04-23 02:28 26.85496 -81.54355 6352 ft 289 kts 78°
2026-04-23 02:28 26.86355 -81.52376 6352 ft 287 kts 47°
2026-04-23 02:29 26.87958 -81.51085 6360 ft 284 kts 25°
2026-04-23 02:29 26.89820 -81.50442 6352 ft 280 kts
2026-04-23 02:29 26.91702 -81.50807 6354 ft 275 kts 333°
2026-04-23 02:29 26.93148 -81.52148 6354 ft 271 kts 304°
2026-04-23 02:30 26.93872 -81.54082 6359 ft 270 kts 284°
2026-04-23 02:30 26.94295 -81.56131 6353 ft 270 kts 281°
2026-04-23 02:30 26.94668 -81.58193 6355 ft 269 kts 281°
2026-04-23 02:30 26.95016 -81.60253 6351 ft 269 kts 280°
2026-04-23 02:31 26.95349 -81.62326 6351 ft 269 kts 279°
2026-04-23 02:31 26.95668 -81.64367 6354 ft 269 kts 279°
2026-04-23 02:31 26.95989 -81.66443 6354 ft 269 kts 279°
2026-04-23 02:31 26.96305 -81.68513 6354 ft 269 kts 279°
2026-04-23 02:32 26.96620 -81.70581 6355 ft 269 kts 279°
2026-04-23 02:32 26.96934 -81.72649 6354 ft 269 kts 279°
2026-04-23 02:32 26.97249 -81.74733 6349 ft 269 kts 279°
2026-04-23 02:32 26.97557 -81.76780 6354 ft 269 kts 279°
2026-04-23 02:33 26.97869 -81.78850 6350 ft 269 kts 279°
2026-04-23 02:33 26.98180 -81.80920 6354 ft 269 kts 279°
2026-04-23 02:33 26.98491 -81.82990 6354 ft 269 kts 279°
2026-04-23 02:33 26.98802 -81.85063 6352 ft 269 kts 279°
2026-04-23 02:34 26.99113 -81.87133 6354 ft 269 kts 279°
2026-04-23 02:34 26.99423 -81.89209 6351 ft 269 kts 279°
2026-04-23 02:34 26.99733 -81.91281 6354 ft 269 kts 279°
2026-04-23 02:34 27.00043 -81.93350 6350 ft 269 kts 279°
2026-04-23 02:35 27.00353 -81.95427 6355 ft 269 kts 279°
2026-04-23 02:35 27.00663 -81.97503 6353 ft 269 kts 279°
2026-04-23 02:35 27.00953 -81.99577 6352 ft 269 kts 275°
2026-04-23 02:35 27.00714 -82.01614 6349 ft 270 kts 249°
2026-04-23 02:36 26.99612 -82.03298 6353 ft 273 kts 220°
2026-04-23 02:36 26.97868 -82.04122 6356 ft 277 kts 192°
2026-04-23 02:36 26.95939 -82.04176 6354 ft 281 kts 172°
2026-04-23 02:36 26.94163 -82.03276 6354 ft 286 kts 142°
2026-04-23 02:37 26.93018 -82.01469 6354 ft 289 kts 110°
2026-04-23 02:37 26.92803 -81.99241 6359 ft 289 kts 85°
2026-04-23 02:37 26.93054 -81.97005 6356 ft 289 kts 81°
2026-04-23 02:37 26.93359 -81.94770 6349 ft 289 kts 81°
2026-04-23 02:38 26.93666 -81.92539 6354 ft 289 kts 81°
2026-04-23 02:38 26.93973 -81.90308 6354 ft 289 kts 81°
2026-04-23 02:38 26.94280 -81.88074 6348 ft 289 kts 81°
2026-04-23 02:38 26.94587 -81.85842 6354 ft 289 kts 81°
2026-04-23 02:39 26.94889 -81.83643 6354 ft 289 kts 81°
2026-04-23 02:39 26.95195 -81.81412 6354 ft 289 kts 81°
2026-04-23 02:39 26.95501 -81.79180 6354 ft 289 kts 81°
2026-04-23 02:39 26.95806 -81.76952 6353 ft 289 kts 81°
2026-04-23 02:40 26.96110 -81.74714 6351 ft 289 kts 81°
2026-04-23 02:40 26.96411 -81.72483 6351 ft 289 kts 81°
2026-04-23 02:40 26.96714 -81.70251 6352 ft 289 kts 81°
2026-04-23 02:40 26.97016 -81.68018 6348 ft 289 kts 81°
2026-04-23 02:41 26.97318 -81.65790 6350 ft 289 kts 81°
2026-04-23 02:41 26.97619 -81.63584 6354 ft 289 kts 81°
2026-04-23 02:41 26.97922 -81.61351 6348 ft 289 kts 81°
2026-04-23 02:41 26.98224 -81.59120 6354 ft 289 kts 81°
2026-04-23 02:42 26.98527 -81.56884 6349 ft 289 kts 81°
2026-04-23 02:42 26.98839 -81.54653 6351 ft 289 kts 78°
2026-04-23 02:42 26.99579 -81.52580 6348 ft 288 kts 54°
2026-04-23 02:42 27.01050 -81.51112 6353 ft 284 kts 25°
2026-04-23 02:43 27.02919 -81.50634 6353 ft 279 kts 356°
2026-04-23 02:43 27.04818 -81.51037 6355 ft 276 kts 339°
2026-04-23 02:43 27.06420 -81.52141 6355 ft 272 kts 312°
2026-04-23 02:43 27.07314 -81.53976 6351 ft 269 kts 282°
2026-04-23 02:44 27.07227 -81.56045 6354 ft 270 kts 253°
2026-04-23 02:44 27.06492 -81.57977 6355 ft 270 kts 245°
2026-04-23 02:44 27.05650 -81.59851 6352 ft 270 kts 243°
2026-04-23 02:44 27.04775 -81.61719 6350 ft 270 kts 243°
2026-04-23 02:45 27.03879 -81.63585 6350 ft 270 kts 242°
2026-04-23 02:45 27.02977 -81.65435 6351 ft 270 kts 242°
2026-04-23 02:45 27.02066 -81.67286 6353 ft 270 kts 242°
2026-04-23 02:45 27.01154 -81.69127 6355 ft 270 kts 242°
2026-04-23 02:46 27.00238 -81.70974 6352 ft 270 kts 242°
2026-04-23 02:46 26.99321 -81.72821 6356 ft 270 kts 242°
2026-04-23 02:46 26.98413 -81.74641 6356 ft 270 kts 242°
2026-04-23 02:46 26.97575 -81.76325 6351 ft 270 kts 242°
2026-04-23 02:47 26.96658 -81.78166 6356 ft 270 kts 242°
2026-04-23 02:47 26.95741 -81.80005 6353 ft 270 kts 242°
2026-04-23 02:47 26.94817 -81.81856 6354 ft 270 kts 242°
2026-04-23 02:47 26.93894 -81.83705 6355 ft 270 kts 242°
2026-04-23 02:48 26.92988 -81.85518 6351 ft 270 kts 242°
2026-04-23 02:48 26.92070 -81.87357 6351 ft 270 kts 242°
2026-04-23 02:48 26.91150 -81.89199 6353 ft 270 kts 242°
2026-04-23 02:48 26.90231 -81.91038 6351 ft 270 kts 242°
2026-04-23 02:49 26.89310 -81.92880 6350 ft 270 kts 242°
2026-04-23 02:49 26.88391 -81.94718 6355 ft 270 kts 242°
2026-04-23 02:49 26.87472 -81.96556 6354 ft 270 kts 242°
2026-04-23 02:49 26.86418 -81.98298 6352 ft 272 kts 226°
2026-04-23 02:50 26.84830 -81.99383 6352 ft 276 kts 199°
2026-04-23 02:50 26.82915 -81.99442 6353 ft 281 kts 168°
2026-04-23 02:50 26.81155 -81.98462 6355 ft 285 kts 146°
2026-04-23 02:50 26.79813 -81.96832 6352 ft 288 kts 120°
2026-04-23 02:51 26.79311 -81.94682 6354 ft 289 kts 89°
2026-04-23 02:51 26.79841 -81.92540 6351 ft 288 kts 58°
2026-04-23 02:51 26.81130 -81.90837 6353 ft 286 kts 43°
2026-04-23 02:51 26.82579 -81.89310 6354 ft 286 kts 41°
2026-04-23 02:52 26.84048 -81.87809 6350 ft 286 kts 40°
2026-04-23 02:52 26.85527 -81.86313 6353 ft 286 kts 40°
2026-04-23 02:52 26.87009 -81.84824 6354 ft 286 kts 40°
2026-04-23 02:52 26.88491 -81.83337 6354 ft 286 kts 40°
2026-04-23 02:53 26.89972 -81.81854 6351 ft 286 kts 40°
2026-04-23 02:53 26.91457 -81.80368 6353 ft 286 kts 40°
2026-04-23 02:53 26.92944 -81.78879 6350 ft 286 kts 40°
2026-04-23 02:53 26.94429 -81.77393 6355 ft 286 kts 40°
2026-04-23 02:54 26.95911 -81.75908 6352 ft 286 kts 40°
2026-04-23 02:54 26.97399 -81.74416 6351 ft 286 kts 40°
2026-04-23 02:54 26.98883 -81.72929 6350 ft 286 kts 40°
2026-04-23 02:54 27.00346 -81.71461 6353 ft 286 kts 40°
2026-04-23 02:55 27.01827 -81.69975 6354 ft 286 kts 40°
2026-04-23 02:55 27.03316 -81.68481 6352 ft 286 kts 40°
2026-04-23 02:55 27.04798 -81.66992 6354 ft 286 kts 40°
2026-04-23 02:55 27.06284 -81.65499 6352 ft 286 kts 40°
2026-04-23 02:56 27.07766 -81.64010 6353 ft 286 kts 40°
2026-04-23 02:56 27.09251 -81.62517 6353 ft 286 kts 40°
2026-04-23 02:56 27.10742 -81.61038 6351 ft 286 kts 37°
2026-04-23 02:56 27.12481 -81.60021 6350 ft 282 kts 12°
2026-04-23 02:57 27.14401 -81.59993 6352 ft 277 kts 344°
2026-04-23 02:57 27.16069 -81.60993 6352 ft 272 kts 315°
2026-04-23 02:57 27.17251 -81.62612 6352 ft 271 kts 300°
2026-04-23 02:57 27.17813 -81.64597 6354 ft 269 kts 272°
2026-04-23 02:58 27.17380 -81.66622 6351 ft 270 kts 241°
2026-04-23 02:58 27.16044 -81.68094 6357 ft 274 kts 212°
2026-04-23 02:58 27.14325 -81.69047 6355 ft 275 kts 206°
2026-04-23 02:58 27.12570 -81.69909 6356 ft 275 kts 205°
2026-04-23 02:59 27.10804 -81.70754 6355 ft 275 kts 205°
2026-04-23 02:59 27.09056 -81.71579 6352 ft 275 kts 204°
2026-04-23 02:59 27.07287 -81.72406 6352 ft 275 kts 204°
2026-04-23 02:59 27.05511 -81.73233 6354 ft 275 kts 204°
2026-04-23 03:00 27.03741 -81.74054 6351 ft 275 kts 204°
2026-04-23 03:00 27.01969 -81.74874 6351 ft 275 kts 204°
2026-04-23 03:00 27.00219 -81.75683 6355 ft 275 kts 204°
2026-04-23 03:00 26.98445 -81.76503 6351 ft 275 kts 204°
2026-04-23 03:01 26.96673 -81.77321 6351 ft 275 kts 204°
2026-04-23 03:01 26.94901 -81.78139 6353 ft 275 kts 204°
2026-04-23 03:01 26.93127 -81.78957 6352 ft 275 kts 204°
2026-04-23 03:01 26.91356 -81.79774 6351 ft 275 kts 204°
2026-04-23 03:02 26.89586 -81.80590 6353 ft 275 kts 204°
2026-04-23 03:02 26.88412 -81.81132 6353 ft 275 kts 204°
2026-04-23 03:02 26.86044 -81.82224 6355 ft 275 kts 204°
2026-04-23 03:02 26.84868 -81.82766 6350 ft 275 kts 204°
2026-04-23 03:03 26.83098 -81.83582 6351 ft 275 kts 204°
2026-04-23 03:03 26.81323 -81.84400 6351 ft 275 kts 204°
2026-04-23 03:03 26.79552 -81.85215 6355 ft 275 kts 204°
2026-04-23 03:03 26.77191 -81.86260 6347 ft 276 kts 198°
2026-04-23 03:04 26.75286 -81.86388 6349 ft 281 kts 171°
2026-04-23 03:04 26.74046 -81.85870 6354 ft 284 kts 151°
2026-04-23 03:04 26.72678 -81.84294 6353 ft 288 kts 120°
2026-04-23 03:04 26.72009 -81.82146 6352 ft 289 kts 99°
2026-04-23 03:05 26.72131 -81.79956 6355 ft 289 kts 72°
2026-04-23 03:05 26.73173 -81.78072 6350 ft 286 kts 41°
2026-04-23 03:05 26.74884 -81.77031 6354 ft 282 kts 12°
2026-04-23 03:05 26.76841 -81.76717 6353 ft 280 kts
2026-04-23 03:06 26.78777 -81.76556 6353 ft 280 kts
2026-04-23 03:06 26.80709 -81.76426 6354 ft 280 kts
2026-04-23 03:06 26.82654 -81.76312 6354 ft 280 kts
2026-04-23 03:06 26.84599 -81.76207 6354 ft 280 kts
2026-04-23 03:07 26.86542 -81.76106 6353 ft 280 kts
2026-04-23 03:07 26.88487 -81.76008 6352 ft 280 kts
2026-04-23 03:07 26.90429 -81.75912 6351 ft 280 kts
2026-04-23 03:07 26.92380 -81.75816 6349 ft 280 kts
2026-04-23 03:08 26.94324 -81.75720 6355 ft 280 kts
2026-04-23 03:08 26.96246 -81.75626 6355 ft 280 kts
2026-04-23 03:08 26.98172 -81.75789 6351 ft 276 kts 340°
2026-04-23 03:08 26.99745 -81.76949 6350 ft 271 kts 309°
2026-04-23 03:09 27.00510 -81.78848 6355 ft 269 kts 277°
2026-04-23 03:09 27.00454 -81.80938 6353 ft 269 kts 264°
2026-04-23 03:09 27.00248 -81.83030 6355 ft 269 kts 264°
2026-04-23 03:09 27.00045 -81.85116 6354 ft 269 kts 264°
2026-04-23 03:10 26.99843 -81.87202 6352 ft 270 kts 264°
2026-04-23 03:10 26.99640 -81.89292 6353 ft 269 kts 264°
2026-04-23 03:10 26.99502 -81.91379 6348 ft 269 kts 273°
2026-04-23 03:10 26.99910 -81.93398 6352 ft 270 kts 287°
2026-04-23 03:11 27.00511 -81.95392 6355 ft 270 kts 288°
2026-04-23 03:11 27.01113 -81.97385 6354 ft 270 kts 288°
2026-04-23 03:11 27.01685 -81.99386 6350 ft 269 kts 284°
2026-04-23 03:11 27.02043 -82.01452 6350 ft 269 kts 278°
2026-04-23 03:12 27.02268 -82.03534 6349 ft 269 kts 269°
2026-04-23 03:12 27.01760 -82.05532 6350 ft 271 kts 239°
2026-04-23 03:12 27.00362 -82.06932 6350 ft 273 kts 207°
2026-04-23 03:12 26.98483 -82.07298 6355 ft 280 kts 177°
2026-04-23 03:13 26.96577 -82.06985 6355 ft 281 kts 173°
2026-04-23 03:13 26.94638 -82.06673 6352 ft 281 kts 174°
2026-04-23 03:13 26.92706 -82.06367 6356 ft 281 kts 174°
2026-04-23 03:13 26.90772 -82.06061 6350 ft 281 kts 174°
2026-04-23 03:14 26.88830 -82.05753 6352 ft 280 kts 174°
2026-04-23 03:14 26.86897 -82.05447 6353 ft 281 kts 174°
2026-04-23 03:14 26.84991 -82.05146 6351 ft 281 kts 174°
2026-04-23 03:14 26.83047 -82.04838 6352 ft 281 kts 174°
2026-04-23 03:15 26.81116 -82.04532 6351 ft 281 kts 174°
2026-04-23 03:15 26.79179 -82.04226 6353 ft 281 kts 174°
2026-04-23 03:15 26.77240 -82.03918 6352 ft 281 kts 174°
2026-04-23 03:15 26.75331 -82.03616 6354 ft 281 kts 174°
2026-04-23 03:16 26.73391 -82.03308 6353 ft 281 kts 174°
2026-04-23 03:16 26.71456 -82.03002 6352 ft 281 kts 174°
2026-04-23 03:16 26.67600 -82.02392 6349 ft 281 kts 174°
2026-04-23 03:17 26.65668 -82.02086 6329 ft 280 kts 174°
2026-04-23 03:17 26.63735 -82.01781 6324 ft 280 kts 174°
2026-04-23 03:17 26.61795 -82.01474 6324 ft 280 kts 174°
2026-04-23 03:17 26.59861 -82.01169 6325 ft 280 kts 174°
2026-04-23 03:18 26.57932 -82.00864 6326 ft 280 kts 174°
2026-04-23 03:18 26.55997 -82.00558 6324 ft 280 kts 174°
2026-04-23 03:18 26.54060 -82.00252 6327 ft 280 kts 174°
2026-04-23 03:18 26.52169 -81.99712 6327 ft 282 kts 161°
2026-04-23 03:19 26.50372 -81.98789 6326 ft 284 kts 154°
2026-04-23 03:19 26.48656 -81.97755 6327 ft 284 kts 153°
2026-04-23 03:19 26.46922 -81.96690 6327 ft 284 kts 153°
2026-04-23 03:19 26.45193 -81.95618 6323 ft 284 kts 150°
2026-04-23 03:20 26.43809 -81.94054 6322 ft 288 kts 120°
2026-04-23 03:20 26.43307 -81.91903 6326 ft 289 kts 90°
2026-04-23 03:20 26.43452 -81.89683 6330 ft 289 kts 84°
2026-04-23 03:20 26.43534 -81.87451 6327 ft 288 kts 92°
2026-04-23 03:21 26.43409 -81.85209 6328 ft 289 kts 94°
2026-04-23 03:21 26.43272 -81.82969 6327 ft 289 kts 94°
2026-04-23 03:21 26.43136 -81.80727 6327 ft 289 kts 94°
2026-04-23 03:21 26.43000 -81.78486 6326 ft 289 kts 94°
2026-04-23 03:22 26.42865 -81.76249 6327 ft 289 kts 94°
2026-04-23 03:22 26.42729 -81.74008 6326 ft 289 kts 94°
2026-04-23 03:22 26.42595 -81.71796 6326 ft 289 kts 94°
2026-04-23 03:22 26.42459 -81.69556 6326 ft 289 kts 94°
2026-04-23 03:23 26.42323 -81.67307 6326 ft 289 kts 94°
2026-04-23 03:23 26.42187 -81.65066 6327 ft 289 kts 94°
2026-04-23 03:23 26.42051 -81.62830 6326 ft 289 kts 94°
2026-04-23 03:23 26.41914 -81.60586 6327 ft 289 kts 94°
2026-04-23 03:24 26.41778 -81.58339 6326 ft 289 kts 94°
2026-04-23 03:24 26.41643 -81.56123 6326 ft 289 kts 94°
2026-04-23 03:24 26.41508 -81.53902 6326 ft 289 kts 94°
2026-04-23 03:24 26.41370 -81.51637 6327 ft 289 kts 94°
2026-04-23 03:25 26.41236 -81.49427 6326 ft 289 kts 94°
2026-04-23 03:25 26.41100 -81.47180 6327 ft 289 kts 94°
2026-04-23 03:25 26.40964 -81.44934 6326 ft 289 kts 94°
2026-04-23 03:25 26.40828 -81.42699 6326 ft 289 kts 94°
2026-04-23 03:26 26.40693 -81.40462 6327 ft 289 kts 94°
2026-04-23 03:26 26.40556 -81.38213 6326 ft 289 kts 94°
2026-04-23 03:26 26.40421 -81.35974 6327 ft 289 kts 94°
2026-04-23 03:26 26.40286 -81.33756 6326 ft 289 kts 94°
2026-04-23 03:27 26.40150 -81.31514 6326 ft 289 kts 94°
2026-04-23 03:27 26.40014 -81.29270 6327 ft 289 kts 94°
2026-04-23 03:27 26.39878 -81.27021 6326 ft 289 kts 94°
2026-04-23 03:27 26.39742 -81.24777 6326 ft 289 kts 94°
2026-04-23 03:28 26.39605 -81.22536 6327 ft 289 kts 94°
2026-04-23 03:28 26.39469 -81.20292 6326 ft 289 kts 94°
2026-04-23 03:28 26.39333 -81.18053 6326 ft 289 kts 94°
2026-04-23 03:28 26.39199 -81.15838 6327 ft 289 kts 94°
2026-04-23 03:29 26.39063 -81.13597 6326 ft 289 kts 94°
2026-04-23 03:29 26.38927 -81.11360 6327 ft 289 kts 94°
2026-04-23 03:29 26.38791 -81.09120 6327 ft 289 kts 94°
2026-04-23 03:29 26.38654 -81.06868 6327 ft 289 kts 94°
2026-04-23 03:30 26.38519 -81.04649 6326 ft 289 kts 94°
2026-04-23 03:30 26.38384 -81.02408 6327 ft 289 kts 94°
2026-04-23 03:30 26.38240 -81.00167 6322 ft 289 kts 97°
2026-04-23 03:30 26.37549 -80.98083 6322 ft 287 kts 127°
2026-04-23 03:31 26.36056 -80.96698 6324 ft 283 kts 158°
2026-04-23 03:31 26.34152 -80.96302 6332 ft 279 kts 181°
2026-04-23 03:31 26.32206 -80.96327 6329 ft 279 kts 183°
2026-04-23 03:31 26.30257 -80.96364 6327 ft 279 kts 183°
2026-04-23 03:32 26.28336 -80.96398 6326 ft 279 kts 183°
2026-04-23 03:32 26.26392 -80.96433 6326 ft 279 kts 183°
2026-04-23 03:32 26.24453 -80.96468 6327 ft 279 kts 183°
2026-04-23 03:32 26.22514 -80.96503 6326 ft 279 kts 183°
2026-04-23 03:33 26.20573 -80.96538 6327 ft 279 kts 183°
2026-04-23 03:33 26.18630 -80.96576 6324 ft 279 kts 184°
2026-04-23 03:33 26.16717 -80.96852 6326 ft 277 kts 192°
2026-04-23 03:33 26.14823 -80.97259 6327 ft 277 kts 193°
2026-04-23 03:34 26.12935 -80.97666 6327 ft 277 kts 193°
2026-04-23 03:34 26.11089 -80.98255 6327 ft 276 kts 202°
2026-04-23 03:34 26.09296 -80.99018 6327 ft 275 kts 203°
2026-04-23 03:34 26.07516 -80.99798 6325 ft 275 kts 206°
2026-04-23 03:35 26.05864 -81.00810 6327 ft 274 kts 213°
2026-04-23 03:35 26.04237 -81.01907 6327 ft 274 kts 213°
2026-04-23 03:35 26.02610 -81.03008 6324 ft 273 kts 214°
2026-04-23 03:35 26.01118 -81.04307 6327 ft 272 kts 223°
2026-04-23 03:36 25.99696 -81.05702 6327 ft 272 kts 223°
2026-04-23 03:36 25.98293 -81.07117 6327 ft 272 kts 227°
2026-04-23 03:36 25.97078 -81.08719 6329 ft 271 kts 233°
2026-04-23 03:36 25.95905 -81.10373 6327 ft 271 kts 233°
2026-04-23 03:37 25.94811 -81.12069 6326 ft 270 kts 240°
2026-04-23 03:37 25.93909 -81.13908 6328 ft 270 kts 243°
2026-04-23 03:37 25.93043 -81.15734 6322 ft 270 kts 245°
2026-04-23 03:37 25.92374 -81.17680 6330 ft 269 kts 252°
2026-04-23 03:38 25.91809 -81.19666 6327 ft 269 kts 255°
2026-04-23 03:38 25.91462 -81.21710 6326 ft 269 kts 263°
2026-04-23 03:38 25.91228 -81.23773 6325 ft 269 kts 264°
2026-04-23 03:38 25.91204 -81.25850 6327 ft 269 kts 272°
2026-04-23 03:39 25.91306 -81.27932 6327 ft 269 kts 273°
2026-04-23 03:39 25.91509 -81.29969 6326 ft 269 kts 281°
2026-04-23 03:39 25.91932 -81.31996 6327 ft 269 kts 283°
2026-04-23 03:39 25.92372 -81.34024 6327 ft 269 kts 283°
2026-04-23 03:40 25.92951 -81.36003 6329 ft 270 kts 292°
2026-04-23 03:40 25.93707 -81.37918 6329 ft 270 kts 293°
2026-04-23 03:40 25.94467 -81.39825 6325 ft 270 kts 293°
2026-04-23 03:40 25.95227 -81.41708 6324 ft 270 kts 295°
2026-04-23 03:41 25.96209 -81.43490 6326 ft 271 kts 303°
2026-04-23 03:41 25.97279 -81.45219 6324 ft 271 kts 306°
2026-04-23 03:41 25.98541 -81.46785 6326 ft 272 kts 313°
2026-04-23 03:41 25.99867 -81.48285 6327 ft 272 kts 313°
2026-04-23 03:42 26.01307 -81.49651 6327 ft 273 kts 323°
2026-04-23 03:42 26.02876 -81.50848 6326 ft 273 kts 324°
2026-04-23 03:42 26.04481 -81.51938 6327 ft 274 kts 332°
2026-04-23 03:42 26.06222 -81.52825 6327 ft 275 kts 334°
2026-04-23 03:43 26.07972 -81.53685 6327 ft 275 kts 336°
2026-04-23 03:43 26.09810 -81.54305 6327 ft 277 kts 343°
2026-04-23 03:43 26.11678 -81.54820 6327 ft 277 kts 344°
2026-04-23 03:43 26.13568 -81.55246 6327 ft 278 kts 351°
2026-04-23 03:44 26.15497 -81.55415 6327 ft 278 kts 354°
2026-04-23 03:44 26.17411 -81.55558 6327 ft 277 kts 354°
2026-04-23 03:44 26.19348 -81.55516 6326 ft 280 kts
2026-04-23 03:44 26.21263 -81.55294 6327 ft 280 kts
2026-04-23 03:45 26.23205 -81.55062 6327 ft 280 kts
2026-04-23 03:45 26.25142 -81.54832 6327 ft 280 kts
2026-04-23 03:45 26.27080 -81.54602 6326 ft 280 kts
2026-04-23 03:45 26.29017 -81.54372 6327 ft 280 kts
2026-04-23 03:46 26.30957 -81.54142 6326 ft 280 kts
2026-04-23 03:46 26.32896 -81.53912 6326 ft 280 kts
2026-04-23 03:46 26.34836 -81.53682 6326 ft 280 kts
2026-04-23 03:46 26.36776 -81.53454 6326 ft 280 kts
2026-04-23 03:47 26.38717 -81.53220 6326 ft 280 kts
2026-04-23 03:47 26.40575 -81.52640 6315 ft 284 kts 26°
2026-04-23 03:47 26.42003 -81.51128 6323 ft 288 kts 56°
2026-04-23 03:47 26.42610 -81.49016 6327 ft 289 kts 85°
2026-04-23 03:48 26.42571 -81.46772 6337 ft 290 kts 92°
2026-04-23 03:48 26.42465 -81.44530 6329 ft 289 kts 92°
2026-04-23 03:48 26.42362 -81.42288 6329 ft 289 kts 92°
2026-04-23 03:48 26.42257 -81.40049 6326 ft 289 kts 92°
2026-04-23 03:49 26.42153 -81.37807 6326 ft 289 kts 92°
2026-04-23 03:49 26.42048 -81.35563 6326 ft 289 kts 92°
2026-04-23 03:49 26.41944 -81.33320 6326 ft 289 kts 92°
2026-04-23 03:49 26.41840 -81.31076 6326 ft 289 kts 92°
2026-04-23 03:50 26.41771 -81.29593 6327 ft 289 kts 92°
2026-04-23 03:50 26.41665 -81.27346 6327 ft 289 kts 92°
2026-04-23 03:50 26.41561 -81.25105 6326 ft 289 kts 92°
2026-04-23 03:50 26.41457 -81.22898 6316 ft 268 kts 92°
2026-04-23 03:51 26.41364 -81.20960 5986 ft 242 kts 92°
2026-04-23 03:51 26.41276 -81.19109 5362 ft 234 kts 92°
2026-04-23 03:51 26.41190 -81.17321 4755 ft 228 kts 92°
2026-04-23 03:51 26.41107 -81.15569 4109 ft 224 kts 92°
2026-04-23 03:52 26.41026 -81.13841 3461 ft 222 kts 92°
2026-04-23 03:52 26.40946 -81.12150 2815 ft 220 kts 92°
2026-04-23 03:52 26.40868 -81.10470 2342 ft 210 kts 92°
2026-04-23 03:52 26.40794 -81.08881 1902 ft 201 kts 92°
2026-04-23 03:53 26.40722 -81.07342 1453 ft 196 kts 92°
2026-04-23 03:53 26.40653 -81.05906 1318 ft 174 kts 92°
2026-04-23 03:53 26.40589 -81.04586 1317 ft 184 kts 91°
2026-04-23 03:53 26.40526 -81.03099 1330 ft 196 kts 91°
2026-04-23 03:54 26.40459 -81.01571 1320 ft 197 kts 91°
2026-04-23 03:54 26.40391 -81.00044 1318 ft 197 kts 91°
2026-04-23 03:54 26.40325 -80.98515 1317 ft 197 kts 91°
2026-04-23 03:54 26.40081 -80.97032 1309 ft 196 kts 114°
2026-04-23 03:55 26.39388 -80.95747 1325 ft 195 kts 125°
2026-04-23 03:55 26.38584 -80.94523 1322 ft 195 kts 128°
2026-04-23 03:55 26.37769 -80.93311 1318 ft 195 kts 128°
2026-04-23 03:55 26.36942 -80.92113 1318 ft 194 kts 129°
2026-04-23 03:56 26.36115 -80.90936 1318 ft 194 kts 129°
2026-04-23 03:56 26.35273 -80.89746 1319 ft 194 kts 129°
2026-04-23 03:56 26.34432 -80.88560 1319 ft 194 kts 128°
2026-04-23 03:56 26.33592 -80.87367 1318 ft 195 kts 129°
2026-04-23 03:57 26.32764 -80.86198 1318 ft 194 kts 129°
2026-04-23 03:57 26.31922 -80.85017 1318 ft 194 kts 129°
2026-04-23 03:57 26.31079 -80.83836 1317 ft 194 kts 129°
2026-04-23 03:57 26.30234 -80.82651 1317 ft 195 kts 129°
2026-04-23 03:58 26.29389 -80.81471 1318 ft 195 kts 129°
2026-04-23 03:58 26.28552 -80.80306 1318 ft 194 kts 129°
2026-04-23 03:58 26.27706 -80.79128 1318 ft 194 kts 129°
2026-04-23 03:58 26.26857 -80.77945 1318 ft 194 kts 129°
2026-04-23 03:59 26.26016 -80.76765 1318 ft 194 kts 129°
2026-04-23 03:59 26.25175 -80.75584 1318 ft 195 kts 129°
2026-04-23 03:59 26.24333 -80.74403 1318 ft 195 kts 129°
2026-04-23 03:59 26.23487 -80.73224 1319 ft 195 kts 130°
2026-04-23 04:00 26.22635 -80.72053 1319 ft 195 kts 130°
2026-04-23 04:00 26.21794 -80.70897 1317 ft 195 kts 130°
2026-04-23 04:00 26.20946 -80.69723 1317 ft 195 kts 129°
2026-04-23 04:00 26.20097 -80.68543 1318 ft 195 kts 129°
2026-04-23 04:01 26.19249 -80.67365 1318 ft 195 kts 129°
2026-04-23 04:01 26.18405 -80.66190 1318 ft 194 kts 129°
2026-04-23 04:01 26.17551 -80.65019 1320 ft 194 kts 130°
2026-04-23 04:01 26.16695 -80.63852 1318 ft 194 kts 130°
2026-04-23 04:02 26.15841 -80.62683 1317 ft 194 kts 130°
2026-04-23 04:02 26.15000 -80.61523 1318 ft 195 kts 130°
2026-04-23 04:02 26.14150 -80.60342 1318 ft 195 kts 129°
2026-04-23 04:02 26.13306 -80.59162 1317 ft 195 kts 130°
2026-04-23 04:03 26.12460 -80.57983 1318 ft 194 kts 130°
2026-04-23 04:03 26.11616 -80.56807 1318 ft 194 kts 130°
2026-04-23 04:03 26.10652 -80.55783 1309 ft 191 kts 154°
2026-04-23 04:03 26.09418 -80.55341 1324 ft 188 kts 170°
2026-04-23 04:04 26.08128 -80.55078 1321 ft 188 kts 173°
2026-04-23 04:04 26.06836 -80.54843 1318 ft 188 kts 173°
2026-04-23 04:04 26.05543 -80.54611 1317 ft 188 kts 173°
2026-04-23 04:04 26.04248 -80.54381 1319 ft 188 kts 173°
2026-04-23 04:05 26.02951 -80.54150 1318 ft 188 kts 173°
2026-04-23 04:05 26.01677 -80.53924 1319 ft 188 kts 173°
2026-04-23 04:05 26.00395 -80.53696 1310 ft 178 kts 173°
2026-04-23 04:05 25.99252 -80.53490 1302 ft 159 kts 173°
2026-04-23 04:06 25.98166 -80.53289 1315 ft 158 kts 173°
2026-04-23 04:06 25.97090 -80.53088 1317 ft 157 kts 173°
2026-04-23 04:06 25.96011 -80.52886 1319 ft 157 kts 173°
2026-04-23 04:06 25.94934 -80.52686 1318 ft 157 kts 173°
2026-04-23 04:07 25.93855 -80.52484 1318 ft 157 kts 173°